• In Lithuania
  • List of Countries
  • For 7 days
  • Water Temperature
  • Satellite Maps
  • Weather Map
  • Weather Widgets
  • user-avatar
    Login

    Hourly Weather Klagenfurt

    Today, 27 July, Thursday

    Time Temperature Precipitation Wind Pressure Humidity
    00:00 +11°C° 0 mm 1 mps 685 mmHg 84%
    01:00 +11°C° 0 mm 1 mps 685 mmHg 83%
    02:00 +11°C° 0.1 mm 1 mps 685 mmHg 84%
    03:00 +11°C° 0.1 mm 1 mps 685 mmHg 85%
    04:00 +11°C° 0.1 mm 1 mps 686 mmHg 86%
    05:00 +12°C° 0.1 mm 1 mps 686 mmHg 85%
    06:00 +13°C° 0.1 mm 1 mps 687 mmHg 83%
    07:00 +15°C° 0 mm 1 mps 687 mmHg 81%
    08:00 +18°C° 0 mm 1 mps 687 mmHg 70%
    09:00 +20°C° 0 mm 1 mps 688 mmHg 59%
    10:00 +23°C° 0 mm 1 mps 688 mmHg 49%
    11:00 +24°C° 0 mm 1 mps 689 mmHg 45%
    12:00 +25°C° 0 mm 1 mps 689 mmHg 41%
    13:00 +26°C° 0 mm 2 mps 689 mmHg 37%
    14:00 +25°C° 0 mm 2 mps 689 mmHg 40%
    15:00 +24°C° 0 mm 2 mps 688 mmHg 44%
    16:00 +24°C° 0 mm 2 mps 688 mmHg 47%
    17:00 +22°C° 0.1 mm 1 mps 688 mmHg 56%
    18:00 +20°C° 0.1 mm 1 mps 687 mmHg 66%
    19:00 +19°C° 0.1 mm 1 mps 687 mmHg 75%
    20:00 +16°C° 0 mm 1 mps 687 mmHg 79%
    21:00 +16°C° 0 mm 1 mps 687 mmHg 81%
    22:00 +15°C° 0 mm 1 mps 687 mmHg 82%
    23:00 +14°C° 0 mm 1 mps 688 mmHg 83%

    Tomorrow, 28 July, Friday

    Time Temperature Precipitation Wind Pressure Humidity
    00:00 +14°C° 0 mm 1 mps 688 mmHg 84%
    01:00 +14°C° 0 mm 1 mps 688 mmHg 85%
    02:00 +13°C° 0 mm 1 mps 688 mmHg 85%
    03:00 +13°C° 0 mm 1 mps 688 mmHg 85%
    04:00 +13°C° 0 mm 1 mps 688 mmHg 85%
    05:00 +15°C° 0 mm 1 mps 688 mmHg 81%
    06:00 +15°C° 0 mm 0 mps 689 mmHg 77%
    07:00 +17°C° 0 mm 0 mps 689 mmHg 72%
    08:00 +19°C° 0 mm 0 mps 690 mmHg 64%
    09:00 +22°C° 0 mm 0 mps 690 mmHg 55%
    10:00 +26°C° 0 mm 1 mps 691 mmHg 46%
    11:00 +27°C° 0.1 mm 1 mps 691 mmHg 45%
    12:00 +27°C° 0.1 mm 1 mps 691 mmHg 43%
    13:00 +27°C° 0.1 mm 2 mps 691 mmHg 42%
    14:00 +27°C° 0.1 mm 2 mps 691 mmHg 44%
    15:00 +27°C° 0.1 mm 2 mps 691 mmHg 46%
    16:00 +26°C° 0.1 mm 2 mps 691 mmHg 48%
    17:00 +24°C° 0 mm 1 mps 691 mmHg 57%
    18:00 +23°C° 0 mm 1 mps 691 mmHg 66%
    19:00 +21°C° 0 mm 1 mps 690 mmHg 75%
    20:00 +20°C° 0 mm 1 mps 691 mmHg 79%
    21:00 +18°C° 0 mm 1 mps 691 mmHg 82%
    22:00 +16°C° 0 mm 1 mps 691 mmHg 86%
    23:00 +15°C° 0 mm 1 mps 691 mmHg 87%

    Day after tomorrow, 29 July, Saturday

    Time Temperature Precipitation Wind Pressure Humidity
    00:00 +15°C° 0 mm 1 mps 692 mmHg 88%
    01:00 +15°C° 0 mm 1 mps 692 mmHg 90%
    02:00 +14°C° 0 mm 1 mps 692 mmHg 90%
    03:00 +14°C° 0 mm 1 mps 692 mmHg 91%
    04:00 +13°C° 0 mm 0 mps 692 mmHg 91%
    05:00 +15°C° 0 mm 1 mps 692 mmHg 87%
    06:00 +18°C° 0 mm 1 mps 693 mmHg 82%
    07:00 +20°C° 0 mm 1 mps 693 mmHg 77%
    08:00 +22°C° 0 mm 1 mps 694 mmHg 68%
    09:00 +24°C° 0 mm 1 mps 694 mmHg 60%
    10:00 +26°C° 0 mm 1 mps 694 mmHg 52%
    11:00 +27°C° 0 mm 1 mps 694 mmHg 49%
    12:00 +28°C° 0 mm 1 mps 694 mmHg 46%
    13:00 +29°C° 0 mm 1 mps 694 mmHg 43%
    14:00 +29°C° 0 mm 2 mps 694 mmHg 44%
    15:00 +29°C° 0 mm 2 mps 694 mmHg 45%
    16:00 +28°C° 0 mm 2 mps 694 mmHg 46%
    17:00 +26°C° 0 mm 2 mps 693 mmHg 55%
    18:00 +25°C° 0 mm 1 mps 693 mmHg 64%
    19:00 +23°C° 0 mm 1 mps 693 mmHg 73%
    20:00 +21°C° 0.1 mm 1 mps 693 mmHg 77%
    21:00 +20°C° 0.1 mm 1 mps 693 mmHg 80%
    22:00 +19°C° 0.1 mm 1 mps 693 mmHg 84%
    23:00 +18°C° 0 mm 1 mps 692 mmHg 84%

    30 July, Sunday

    Time Temperature Precipitation Wind Pressure Humidity
    00:00 +18°C° 0 mm 1 mps 692 mmHg 85%
    01:00 +18°C° 0 mm 1 mps 692 mmHg 86%
    02:00 +18°C° 0.2 mm 1 mps 692 mmHg 86%
    03:00 +16°C° 0.2 mm 1 mps 692 mmHg 86%
    04:00 +16°C° 0.2 mm 1 mps 691 mmHg 86%
    05:00 +18°C° 0.6 mm 1 mps 692 mmHg 84%
    06:00 +18°C° 0.6 mm 0 mps 692 mmHg 81%
    07:00 +19°C° 0.6 mm 0 mps 692 mmHg 78%
    08:00 +23°C° 0.4 mm 1 mps 692 mmHg 70%
    09:00 +25°C° 0.4 mm 1 mps 693 mmHg 62%
    10:00 +27°C° 0.4 mm 1 mps 693 mmHg 54%
    11:00 +28°C° 0.3 mm 2 mps 693 mmHg 52%
    12:00 +28°C° 0.3 mm 2 mps 693 mmHg 51%
    13:00 +29°C° 0.3 mm 2 mps 692 mmHg 49%
    14:00 +29°C° 0.4 mm 2 mps 692 mmHg 51%
    15:00 +29°C° 0.4 mm 2 mps 692 mmHg 53%
    16:00 +28°C° 0.4 mm 2 mps 692 mmHg 55%
    17:00 +26°C° 0.2 mm 2 mps 692 mmHg 63%
    18:00 +25°C° 0.2 mm 1 mps 691 mmHg 71%
    19:00 +23°C° 0.2 mm 1 mps 691 mmHg 79%
    20:00 +22°C° 0.2 mm 1 mps 691 mmHg 82%
    21:00 +21°C° 0.2 mm 1 mps 691 mmHg 85%
    22:00 +19°C° 0.2 mm 1 mps 691 mmHg 89%
    23:00 +19°C° 0.1 mm 1 mps 691 mmHg 89%

    31 July, Monday

    Time Temperature Precipitation Wind Pressure Humidity
    00:00 +19°C° 0.1 mm 1 mps 691 mmHg 89%
    01:00 +18°C° 0.1 mm 1 mps 691 mmHg 89%
    02:00 +18°C° 0 mm 1 mps 691 mmHg 89%
    03:00 +16°C° 0 mm 1 mps 691 mmHg 89%
    04:00 +16°C° 0 mm 1 mps 691 mmHg 89%
    05:00 +19°C° 0 mm 1 mps 691 mmHg 85%
    06:00 +18°C° 0 mm 0 mps 692 mmHg 81%
    07:00 +20°C° 0 mm 0 mps 692 mmHg 77%
    08:00 +22°C° 0 mm 0 mps 693 mmHg 67%
    09:00 +25°C° 0 mm 0 mps 693 mmHg 58%
    10:00 +28°C° 0 mm 0 mps 694 mmHg 49%
    11:00 +31°C° 0 mm 1 mps 694 mmHg 46%
    12:00 +31°C° 0 mm 1 mps 694 mmHg 44%
    13:00 +32°C° 0 mm 1 mps 694 mmHg 41%
    14:00 +32°C° 0 mm 1 mps 693 mmHg 42%
    15:00 +31°C° 0 mm 1 mps 693 mmHg 44%
    16:00 +31°C° 0 mm 1 mps 693 mmHg 45%
    17:00 +29°C° 0 mm 1 mps 693 mmHg 54%
    18:00 +27°C° 0 mm 1 mps 692 mmHg 64%
    19:00 +25°C° 0 mm 1 mps 692 mmHg 73%
    20:00 +23°C° 0 mm 1 mps 692 mmHg 76%
    21:00 +22°C° 0 mm 1 mps 692 mmHg 80%
    22:00 +21°C° 0 mm 1 mps 692 mmHg 84%
    23:00 +20°C° 0 mm 1 mps 692 mmHg 85%

    1 August, Tuesday

    Time Temperature Precipitation Wind Pressure Humidity
    00:00 +20°C° 0 mm 1 mps 691 mmHg 86%
    01:00 +19°C° 0 mm 1 mps 691 mmHg 87%
    02:00 +19°C° 0 mm 1 mps 691 mmHg 87%
    03:00 +18°C° 0 mm 1 mps 691 mmHg 88%
    04:00 +18°C° 0 mm 1 mps 691 mmHg 88%
    05:00 +20°C° 0 mm 1 mps 691 mmHg 83%
    06:00 +19°C° 0 mm 0 mps 691 mmHg 78%
    07:00 +21°C° 0 mm 0 mps 692 mmHg 74%
    08:00 +25°C° 0 mm 1 mps 692 mmHg 64%
    09:00 +28°C° 0 mm 1 mps 692 mmHg 53%
    10:00 +30°C° 0 mm 1 mps 693 mmHg 43%
    11:00 +31°C° 0 mm 2 mps 692 mmHg 39%
    12:00 +32°C° 0 mm 2 mps 692 mmHg 35%
    13:00 +34°C° 0 mm 3 mps 692 mmHg 31%
    14:00 +33°C° 0 mm 3 mps 692 mmHg 32%
    15:00 +33°C° 0 mm 3 mps 691 mmHg 32%
    16:00 +33°C° 0 mm 3 mps 691 mmHg 32%
    17:00 +29°C° 0 mm 2 mps 690 mmHg 43%
    18:00 +27°C° 0 mm 2 mps 689 mmHg 54%
    19:00 +24°C° 0 mm 1 mps 689 mmHg 64%
    20:00 +23°C° 0 mm 1 mps 689 mmHg 66%
    21:00 +22°C° 0 mm 1 mps 689 mmHg 68%
    22:00 +20°C° 0 mm 1 mps 690 mmHg 70%
    23:00 +20°C° 0 mm 1 mps 690 mmHg 70%
    Show more